TimeAKST,TemperatureF,Dew PointF,Humidity,Sea Level PressureIn,VisibilityMPH,Wind Direction,Wind SpeedMPH,Gust SpeedMPH,PrecipitationIn,Events,Conditions,WindDirDegrees,DateUTC
12:16 AM,33.8,30.2,87,29.76,4.0,North,8.1,-,N/A,,Overcast,350,2012-11-11 09:16:00
12:36 AM,33.8,28.4,81,29.75,5.0,North,6.9,-,N/A,,Overcast,350,2012-11-11 09:36:00
12:56 AM,33.8,28.4,81,29.75,5.0,North,6.9,-,N/A,,Overcast,350,2012-11-11 09:56:00
1:16 AM,33.8,28.4,81,29.74,5.0,NNW,8.1,-,N/A,,Overcast,340,2012-11-11 10:16:00
1:36 AM,33.8,30.2,87,29.74,9.0,NNW,9.2,-,N/A,,Overcast,340,2012-11-11 10:36:00
1:56 AM,33.8,30.2,87,29.73,8.0,NNW,9.2,-,N/A,,Overcast,340,2012-11-11 10:56:00
2:36 AM,33.8,28.4,81,29.73,10.0,NNW,6.9,-,N/A,,Overcast,340,2012-11-11 11:36:00
2:56 AM,33.8,28.4,81,29.72,9.0,NNW,8.1,-,N/A,,Overcast,340,2012-11-11 11:56:00
3:16 AM,33.8,28.4,81,29.72,4.0,North,8.1,-,N/A,,Overcast,350,2012-11-11 12:16:00
3:36 AM,33.8,28.4,81,29.72,5.0,NNW,8.1,-,N/A,,Overcast,340,2012-11-11 12:36:00
3:56 AM,33.8,30.2,87,29.71,5.0,NNW,9.2,-,N/A,,Overcast,340,2012-11-11 12:56:00
4:36 AM,33.8,30.2,87,29.70,10.0,NNW,9.2,-,N/A,,Overcast,340,2012-11-11 13:36:00
4:56 AM,33.8,30.2,87,29.70,10.0,NNW,8.1,-,N/A,,Overcast,330,2012-11-11 13:56:00
5:16 AM,33.8,28.4,81,29.70,10.0,NNW,8.1,-,N/A,,Overcast,330,2012-11-11 14:16:00
5:36 AM,33.8,30.2,87,29.69,10.0,NNW,8.1,-,N/A,,Overcast,340,2012-11-11 14:36:00
5:56 AM,33.8,30.2,87,29.69,7.0,NNW,9.2,-,N/A,,Overcast,340,2012-11-11 14:56:00
6:16 AM,33.8,28.4,81,29.69,10.0,NNW,8.1,-,N/A,,Overcast,330,2012-11-11 15:16:00
6:36 AM,33.8,28.4,81,29.69,8.0,NNW,10.4,-,N/A,,Overcast,330,2012-11-11 15:36:00
6:56 AM,33.8,30.2,87,29.69,10.0,NNW,8.1,-,N/A,,Overcast,330,2012-11-11 15:56:00
7:16 AM,33.8,28.4,81,29.69,8.0,NNW,6.9,-,N/A,,Overcast,330,2012-11-11 16:16:00
7:36 AM,33.8,28.4,81,29.69,4.0,NNW,6.9,-,N/A,,Overcast,340,2012-11-11 16:36:00
7:56 AM,33.8,30.2,87,29.69,7.0,NNW,6.9,-,N/A,,Overcast,330,2012-11-11 16:56:00
8:16 AM,33.8,30.2,87,29.69,10.0,NNW,6.9,-,N/A,,Overcast,330,2012-11-11 17:16:00
8:36 AM,33.8,30.2,87,29.69,10.0,NNW,6.9,-,N/A,,Overcast,330,2012-11-11 17:36:00
9:16 AM,33.8,30.2,87,29.69,10.0,NNW,9.2,-,N/A,,Overcast,330,2012-11-11 18:16:00
9:36 AM,33.8,30.2,87,29.69,9.0,NNW,6.9,-,N/A,,Overcast,330,2012-11-11 18:36:00
9:56 AM,33.8,30.2,87,29.69,5.0,NNW,8.1,-,N/A,,Overcast,330,2012-11-11 18:56:00
10:16 AM,33.8,30.2,87,29.69,8.0,NNW,8.1,-,N/A,,Overcast,330,2012-11-11 19:16:00
10:36 AM,33.8,30.2,87,29.69,10.0,NNW,8.1,-,N/A,,Overcast,330,2012-11-11 19:36:00
10:56 AM,33.8,30.2,87,29.69,10.0,NNW,5.8,-,N/A,,Overcast,330,2012-11-11 19:56:00
11:16 AM,33.8,30.2,87,29.69,9.0,NNW,4.6,-,N/A,,Overcast,340,2012-11-11 20:16:00
11:36 AM,33.8,30.2,87,29.69,6.0,NNW,5.8,-,N/A,,Mostly Cloudy,340,2012-11-11 20:36:00
11:56 AM,33.8,30.2,87,29.69,10.0,NNW,8.1,-,N/A,,Overcast,330,2012-11-11 20:56:00
12:16 PM,33.8,30.2,87,29.70,10.0,NNW,5.8,-,N/A,,Overcast,330,2012-11-11 21:16:00
12:36 PM,33.8,30.2,87,29.70,10.0,NNW,5.8,-,N/A,,Overcast,340,2012-11-11 21:36:00
12:56 PM,33.8,30.2,87,29.70,10.0,North,3.5,-,N/A,,Overcast,350,2012-11-11 21:56:00
1:16 PM,33.8,30.2,87,29.70,10.0,NNW,4.6,-,N/A,,Overcast,330,2012-11-11 22:16:00
1:36 PM,33.8,30.2,87,29.70,10.0,North,4.6,-,N/A,,Overcast,350,2012-11-11 22:36:00
1:56 PM,33.8,30.2,87,29.69,10.0,North,5.8,-,N/A,,Overcast,350,2012-11-11 22:56:00
2:16 PM,33.8,30.2,87,29.70,10.0,North,4.6,-,N/A,,Overcast,350,2012-11-11 23:16:00
2:36 PM,33.8,30.2,87,29.70,10.0,NNW,5.8,-,N/A,,Overcast,340,2012-11-11 23:36:00
2:56 PM,33.8,30.2,87,29.70,9.0,NNW,5.8,-,N/A,,Overcast,340,2012-11-11 23:56:00
3:16 PM,33.8,30.2,87,29.70,10.0,North,5.8,-,N/A,,Overcast,350,2012-11-12 00:16:00
3:36 PM,33.8,30.2,87,29.70,10.0,North,3.5,-,N/A,,Overcast,350,2012-11-12 00:36:00
3:56 PM,33.8,30.2,87,29.70,10.0,Calm,Calm,-,N/A,,Overcast,0,2012-11-12 00:56:00
4:16 PM,33.8,30.2,87,29.70,10.0,Calm,Calm,-,N/A,,Overcast,0,2012-11-12 01:16:00
4:36 PM,33.8,30.2,87,29.70,8.0,Calm,Calm,-,N/A,,Overcast,0,2012-11-12 01:36:00
4:56 PM,33.8,30.2,87,29.71,8.0,Calm,Calm,-,N/A,,Overcast,0,2012-11-12 01:56:00
5:16 PM,33.8,30.2,87,29.71,9.0,North,3.5,-,N/A,,Overcast,350,2012-11-12 02:16:00
5:36 PM,33.8,30.2,87,29.71,8.0,Calm,Calm,-,N/A,,Overcast,0,2012-11-12 02:36:00
5:56 PM,33.8,30.2,87,29.71,6.0,Calm,Calm,-,N/A,,Overcast,0,2012-11-12 02:56:00
6:16 PM,33.8,28.4,81,29.71,6.0,Calm,Calm,-,N/A,,Overcast,0,2012-11-12 03:16:00
6:36 PM,33.8,30.2,87,29.71,7.0,Calm,Calm,-,N/A,,Overcast,0,2012-11-12 03:36:00
6:56 PM,33.8,30.2,87,29.71,6.0,Calm,Calm,-,N/A,,Overcast,0,2012-11-12 03:56:00
7:16 PM,33.8,30.2,87,29.72,7.0,Calm,Calm,-,N/A,,Overcast,0,2012-11-12 04:16:00
7:36 PM,33.8,28.4,81,29.72,5.0,Calm,Calm,-,N/A,,Overcast,0,2012-11-12 04:36:00
7:56 PM,33.8,30.2,87,29.72,8.0,Calm,Calm,-,N/A,,Overcast,0,2012-11-12 04:56:00
8:16 PM,33.8,30.2,87,29.72,10.0,Calm,Calm,-,N/A,,Overcast,0,2012-11-12 05:16:00
8:36 PM,33.8,30.2,87,29.73,10.0,Calm,Calm,-,N/A,,Overcast,0,2012-11-12 05:36:00
8:56 PM,33.8,30.2,87,29.73,4.0,Calm,Calm,-,N/A,,Overcast,0,2012-11-12 05:56:00
9:16 PM,33.8,30.2,87,29.73,6.0,Calm,Calm,-,N/A,,Overcast,0,2012-11-12 06:16:00
9:56 PM,33.8,30.2,87,29.74,5.0,Calm,Calm,-,N/A,,Overcast,0,2012-11-12 06:56:00
10:16 PM,33.8,30.2,87,29.74,10.0,Calm,Calm,-,N/A,,Overcast,0,2012-11-12 07:16:00
10:36 PM,33.8,28.4,81,29.74,10.0,Calm,Calm,-,N/A,,Mostly Cloudy,0,2012-11-12 07:36:00
10:56 PM,33.8,28.4,81,29.74,8.0,Calm,Calm,-,N/A,,Overcast,0,2012-11-12 07:56:00
11:16 PM,33.8,30.2,87,29.75,4.0,Calm,Calm,-,N/A,,Overcast,0,2012-11-12 08:16:00
11:36 PM,33.8,30.2,87,29.75,9.0,Calm,Calm,-,N/A,,Overcast,0,2012-11-12 08:36:00
11:56 PM,33.8,30.2,87,29.75,9.0,Calm,Calm,-,N/A,,Overcast,0,2012-11-12 08:56:00